Location: Unspecified
(34.4950°S, 58.5160°W)
Time: 14:42:18
(UTC+00:00)

Cosmos 1655 Rocket - Pass Details

Date: 03 July 2022
Orbit: 971 x 1005 km, 83.0° (Epoch: 11 August)

Event Time Altitude Azimuth Distance (km) Brightness Sun altitude
Rises 08:56:56 0° 165° (SSE) 3,744 7.1 -24.9°
Reaches altitude 10° 09:00:59 10° 141° (SE) 2,778 6.7 -24.1°
Maximum altitude 09:04:11 14° 110° (ESE) 2,469 6.8 -23.5°
Drops below altitude 10° 09:07:22 10° 79° (E) 2,750 7.5 -22.8°
Sets 09:11:17 0° 55° (NE) 3,680 8.2 -22.1°
